Rifle, CO

8:17 AM MDT on August 19, 2017 (GMT -0600)
Garfield County Regional

Weather History for KRIL - October, 2014

Change the Weather History Date:

Sunday, October 5, 2014

  Actual Average Record
Temperature  
Mean Temperature 54 °F 54 °F  
Max Temperature 71 °F 69 °F 84 °F (1947)
Min Temperature 36 °F 38 °F 25 °F (1919)
Degree Days  
Heating Degree Days 11 12  
Month to date heating degree days 75 54  
Since 1 July heating degree days 161 200  
Cooling Degree Days 0 0  
Month to date cooling degree days 0 0  
Year to date cooling degree days 555 541  
Growing Degree Days 4 (Base 50)    
Moisture  
Dew Point 35 °F    
Average Humidity 54    
Maximum Humidity 85    
Minimum Humidity 22    
Precipitation  
Precipitation 0.00 in 0.06 in 0.91 in (1911)
Month to date precipitation 0.51 0.29  
Year to date precipitation 10.82 10.76  
Sea Level Pressure  
Sea Level Pressure 30.09 in    
Wind  
Wind Speed 4 mph (SE)    
Max Wind Speed 18 mph    
Max Gust Speed 24 mph    
Visibility 10 miles    
Events      
T = Trace of Precipitation, MM = Missing Value Source: NWS Daily Summary

Daily Weather History Graph

Daily Weather History Graph

Search for Another Location

Airport or City:

Trip Planner

Search our weather history database for the weather conditions in past years. The results will help you decide how hot, cold, wet, or windy it might be!

Date:

Astronomy

Oct. 05, 2014 Rise Set
Actual Time 7:10 AM MDT 6:46 PM MDT
Civil Twilight 6:44 AM MDT 7:13 PM MDT
Nautical Twilight 6:12 AM MDT 7:44 PM MDT
Astronomical Twilight 5:41 AM MDT 8:16 PM MDT
Moon 5:06 PM MDT (10/5) 3:52 AM MDT (10/5)
Length of Visible Light 12h 29m
Length of Day
11h 35m
Waxing Gibbous, 90% of the Moon is Illuminated
Oct 5
Waxing Gibbous
Oct 8
Full
Oct 15
Last Quarter
Oct 23
New
Oct 30
First Quarter

Hourly Weather History & Observations

Time (MDT) Temp. Windchill Dew Point Humidity Pressure Visibility Wind Dir Wind Speed Gust Speed Precip Events Conditions
12:53 AM 43.0 °F 41.3 °F 36.0 °F 76% 30.10 in 10.0 mi SE 3.5 mph - N/A   Clear
1:53 AM 42.1 °F 39.2 °F 35.1 °F 76% 30.11 in 10.0 mi ESE 4.6 mph - N/A   Clear
2:53 AM 39.9 °F - 35.1 °F 83% 30.11 in 10.0 mi Calm Calm - N/A   Clear
3:53 AM 39.9 °F 36.7 °F 35.1 °F 83% 30.10 in 10.0 mi SE 4.6 mph - N/A   Clear
4:53 AM 39.9 °F - 34.0 °F 79% 30.10 in 10.0 mi Calm Calm - N/A   Clear
5:53 AM 37.0 °F 33.3 °F 33.1 °F 86% 30.13 in 10.0 mi South 4.6 mph - N/A   Clear
6:53 AM 37.0 °F 34.5 °F 33.1 °F 86% 30.15 in 10.0 mi SE 3.5 mph - N/A   Clear
7:53 AM 37.9 °F 35.5 °F 34.0 °F 86% 30.17 in 10.0 mi SSW 3.5 mph - N/A   Clear
8:53 AM 44.1 °F - 35.1 °F 71% 30.19 in 10.0 mi Calm Calm - N/A   Clear
9:53 AM 50.0 °F - 36.0 °F 59% 30.18 in 10.0 mi NNE 4.6 mph - N/A   Clear
10:53 AM 55.0 °F - 35.1 °F 47% 30.14 in 10.0 mi NE 3.5 mph - N/A   Clear
11:53 AM 57.9 °F - 36.0 °F 44% 30.13 in 10.0 mi Calm Calm - N/A   Clear
12:53 PM 63.0 °F - 37.0 °F 38% 30.10 in 10.0 mi Calm Calm - N/A   Clear
1:53 PM 66.0 °F - 37.0 °F 34% 30.06 in 10.0 mi Calm Calm - N/A   Clear
2:53 PM 69.1 °F - 33.1 °F 26% 30.02 in 10.0 mi West 10.4 mph - N/A   Clear
3:53 PM 71.1 °F - 30.9 °F 23% 30.01 in 10.0 mi NW 11.5 mph 20.7 mph N/A   Clear
4:53 PM 70.0 °F - 32.0 °F 25% 30.01 in 10.0 mi WNW 13.8 mph - N/A   Clear
5:53 PM 69.1 °F - 34.0 °F 27% 30.01 in 10.0 mi NNW 8.1 mph - N/A   Clear
6:53 PM 64.0 °F - 34.0 °F 33% 30.03 in 10.0 mi NNW 9.2 mph - N/A   Clear
7:53 PM 57.0 °F - 37.0 °F 47% 30.07 in 10.0 mi SE 3.5 mph - N/A   Clear
8:53 PM 51.1 °F - 37.9 °F 61% 30.09 in 10.0 mi SSE 6.9 mph - N/A   Clear
9:53 PM 51.1 °F - 36.0 °F 56% 30.08 in 10.0 mi ESE 5.8 mph - N/A   Clear
10:53 PM 48.9 °F - 37.0 °F 64% 30.08 in 10.0 mi SSE 3.5 mph - N/A   Clear
11:53 PM 46.9 °F - 37.9 °F 71% 30.09 in 10.0 mi Calm Calm - N/A   Clear